カタログに戻る

STARLINK-34919

運用中通信SSO
NORAD 65802·PAYLOAD·🇺🇸 United States

打ち上げ Sep 26, 2025 から Vandenberg Space Force Base

Loading…

次のパス (今後24時間)

TLE

最新Source: CelesTrak SupGP

元期: Sep 15, 2026, 03:40 UTC

1 65802C 25218M   26258.15326389 -.00022604  00000+0 -70155-3 0  2583
2 65802  97.2848 115.6279 0001943  95.4885 347.1076 15.33455028    13

AllMySatでSTARLINK-34919をリアルタイム追跡

Download on the App Store